BREEZE-M DEB [TANK] (44627 NORAD) Tracking and Keplerian Element Data

This shows tracking and keplerian element data for the satellite.

Feedback or suggestion? Click here.




ElementValue
Catalog44627
NameBREEZE-M DEB [TANK]
Epoch Orbit122
Epoch Day311.53786096
Epoch Year2019
RAAN164.999
Inclination50.4388
Eccentricity0.5843665
Argument of Perigee185.7831
Mean Anonmoly162.3104
Mean Motion4.19970371
Decay Rate-2.96E-06
L11 44627U 19067D 19311.53786096 -.00000296 00000-0 -11207-3 0 9998
L22 44627 50.4388 164.9990 5843665 185.7831 162.3104 4.19970371 1224

Live tracking and technical data element details for BREEZE-M DEB [TANK] (NORAD 44627). BREEZE-M DEB [TANK] can be tracked NOW for your location showing map with azimuth and elevation plus other details from your city location.

Track the satellite on the map from your city or location and see movement details for azimuth, elevation, latitude, longitude, range, height, and movement on the map or in text.







IsCatalogInMostPopularTable: catalog: 44627, numindb: 9
Update: records affected: 1



GetName: 44627 BREEZE-M DEB [TANK]

Hit Count: updated at: Thu, 05 Dec 2019 16:43:54 GMT